< < Back
Terminal Aerodrome Forecast


Current Version              Previous Versions:   1  2  3  4  5  6  7  8  9  

Terminal Aerodrome Forecast

372
FTUS42 KGSP 161300 AAC
TAFHKY
TAF AMD
KHKY 161310Z 1613/1712 VRB03KT 3SM BR SCT002 BKN120
      TEMPO 1613/1614 1SM BR BKN002
     FM161400 28003KT P6SM SCT015 BKN025
     FM161500 30004KT P6SM SCT030
     FM162000 24004KT P6SM VCTS BKN040CB PROB30 1622/1702 4SM TSRA
      BKN040CB
     FM170300 34003KT P6SM BKN250
     FM170600 00000KT 5SM BR BKN040=

Latest METAR

737
SAUS70 KWBC 170300 RRA
MTRHKY
METAR KHKY 170253Z AUTO 05005KT 10SM FEW031 BKN060 21/19 A3001 RMK AO2
SLP142 T02060189 51010


USA.gov is the U.S. government's official web portal to all federal, state and local government web resources and services.